OBJECT A, 55009

Orbit data source: Space-Track

You're viewing an Uncataloged Satellite

Recently launched and/or uncataloged satellites may have evolving metadata. Metadata may include but not limited to: Owner, Maufacturer, Bus, Motor, and Mission.

OBJECT A, 55009 is a satellite in SSO that was launched on Tue, 03 Jan 2023 UTC via an FALCON 9 launch vehicle from the Air Force Eastern Test Range (AFETR). Unknown objects in Earth's orbit typically refer to objects detected orbiting the Earth but have not yet been identified or cataloged. These objects could be anything from previously untracked satellites, spent rocket stages, debris from satellite collisions, or even natural meteoroids temporarily captured by Earth's gravity.

Loading next visibility...
Identifier
55009, 2023-001A
Orbit
SSO
Country
Flag of TBDTBD
Related business
Flag of PLScanway Space (PL)
Manufacturer
German Orb Sys
Mission
Operational Commercial Imaging
Bus & Motor
CUBESAT 6U, Unknown motor
Mass
10 kg wet, ~10 kg dry
Launch date (UTC)
2023-01-03 (3 years ago)
Launch vehicle
FALCON 9
Launch site
Air Force Eastern Test Range (AFETR)
Object type
Unknown
Shape & HBR
Box + 2 Pan, 0.1 m
Radar Cross Section
0.080 m², Medium (>0.1 m² and < 1m²)

Expand to show TLE details & history
Last TLE update: 13 hours ago

TLE from 13 hours ago
0 OBJECT A
1 55009U 23001A   25242.94330194  .00016872  00000-0  52860-3 0  9991
2 55009  97.3623 302.4438 0008444  84.8417 275.3789 15.33120317147613
Epoch: 2025-08-30T22:38Z
TLE epoch observation values (Epoch: 2025-08-30T22:38:21.287Z)
Latitude
-0.00002°
Longitude
-16.51524°
Altitude
469.082 km
Speed
7.632 km/s
True Right ascension
20h 09m 46s
True Declination
0° 00' 00"
Sunlit
Object was in full shadow at epoch
Visualization orbit readout
Latitude
Unknown
Longitude
Unknown
Altitude
Unknown
Speed
Unknown
Apparent Right ascension
Unknown
Apparent Declination
Unknown
Sunlit
N/A
Visualization observer readout
Local Sidereal Time
03:10:18
Azimuth
Unknown
Elevation
Unknown
Doppler factor
Unknown
Orbital elements
Apogee altitude
469.233 km
Perigee altitude
457.679 km
Semi-major axis
6,841.593 km
Eccentricity
0.00084
Inclination
97.3623°
RAAN
302.4438°
Arg. of periapsis
84.8417°
True anomaly
275.28256°
Mean anomaly
275.3789°
Eccentric anomaly
275.33073°
Mean motion
3.83537 °/min
Orbital period
93.86 mins
BSTAR
0.0005286
Loading maneuver chart data...
Computing Atmospheric mass density...
Loading historical data...
Loading historical data...
Loading historical data...
Loading historical data...
Loading historical data...
Loading historical data...
Loading historical data...

Documentation

Showing up to 5 results
|